Time,TemperatureF,DewpointF,PressureIn,WindDirection,WindDirectionDegrees,WindSpeedMPH,WindSpeedGustMPH,Humidity,HourlyPrecipIn,Conditions,Clouds,dailyrainin,SoftwareType,DateUTC
2013-10-17 10:42:00,49.0,49.0,25.83,NNW,329,0.0,2.0,100,0.00,,,0.00,,2013-10-17 17:42:00,
2013-10-17 10:53:00,49.0,49.0,25.83,NNW,329,1.0,4.0,99,0.00,,,0.00,,2013-10-17 17:53:00,
2013-10-17 11:11:00,50.0,50.0,25.83,North,9,1.0,4.0,99,0.00,,,0.00,,2013-10-17 18:11:00,
2013-10-17 11:21:00,50.0,50.0,25.83,NNE,26,3.0,10.0,99,0.00,,,0.00,,2013-10-17 18:21:00,
2013-10-17 11:42:00,51.0,50.0,25.83,North,5,4.0,9.0,98,0.00,,,0.00,,2013-10-17 18:42:00,
2013-10-17 11:52:00,52.0,51.0,25.83,North,354,2.0,6.0,98,0.00,,,0.00,,2013-10-17 18:52:00,
2013-10-17 12:11:00,54.0,52.0,25.83,NNW,346,2.0,10.0,92,0.00,,,0.00,,2013-10-17 19:11:00,
2013-10-17 12:21:00,55.0,52.0,25.83,NNW,341,2.0,8.0,91,0.00,,,0.00,,2013-10-17 19:21:00,
2013-10-17 12:42:00,56.0,53.0,25.83,West,274,1.0,7.0,89,0.00,,,0.00,,2013-10-17 19:42:00,
2013-10-17 12:53:00,56.0,53.0,25.83,West,274,1.0,7.0,89,0.00,,,0.00,,2013-10-17 19:53:00,
2013-10-17 13:02:00,56.0,53.0,25.83,West,274,1.0,7.0,89,0.00,,,0.00,,2013-10-17 20:02:00,
2013-10-17 13:22:00,57.0,53.0,25.83,NNW,333,4.0,10.0,86,0.00,,,0.00,,2013-10-17 20:22:00,
2013-10-17 13:32:00,57.0,53.0,25.83,NNW,333,4.0,10.0,86,0.00,,,0.00,,2013-10-17 20:32:00,
2013-10-17 13:42:00,57.0,53.0,25.83,NNW,333,4.0,10.0,86,0.00,,,0.00,,2013-10-17 20:42:00,
2013-10-17 13:52:00,57.0,53.0,25.83,NNW,333,4.0,10.0,86,0.00,,,0.00,,2013-10-17 20:52:00,
2013-10-17 14:11:00,55.0,52.0,25.83,NNW,333,6.0,19.0,90,0.00,,,0.00,,2013-10-17 21:11:00,
2013-10-17 14:21:00,55.0,52.0,25.83,NW,317,6.0,15.0,90,0.00,,,0.00,,2013-10-17 21:21:00,
2013-10-17 14:44:00,56.0,52.0,25.83,NNW,334,5.0,13.0,88,0.00,,,0.00,,2013-10-17 21:44:00,
2013-10-17 14:54:00,56.0,52.0,25.83,NNW,344,4.0,10.0,88,0.00,,,0.00,,2013-10-17 21:54:00,
2013-10-17 15:04:00,56.0,52.0,25.83,NNW,344,4.0,10.0,88,0.00,,,0.00,,2013-10-17 22:04:00,
2013-10-17 15:13:00,56.0,52.0,25.83,NNW,344,4.0,10.0,88,0.00,,,0.00,,2013-10-17 22:13:00,
2013-10-17 15:23:00,56.0,52.0,25.83,NNW,344,4.0,10.0,88,0.00,,,0.00,,2013-10-17 22:23:00,
2013-10-17 15:53:00,56.0,53.0,25.83,NW,315,4.0,17.0,89,0.00,,,0.00,,2013-10-17 22:53:00,
2013-10-17 16:13:00,55.0,52.0,25.83,NW,306,6.0,16.0,91,0.00,,,0.00,,2013-10-17 23:13:00,
2013-10-17 16:22:00,55.0,53.0,25.83,NW,309,6.0,15.0,92,0.00,,,0.00,,2013-10-17 23:22:00,
2013-10-17 16:33:00,55.0,53.0,25.83,NW,309,6.0,15.0,92,0.00,,,0.00,,2013-10-17 23:33:00,
2013-10-17 16:43:00,55.0,53.0,25.83,NW,309,6.0,15.0,92,0.00,,,0.00,,2013-10-17 23:43:00,
2013-10-17 16:53:00,55.0,53.0,25.83,NW,318,7.0,16.0,93,0.00,,,0.00,,2013-10-17 23:53:00,
2013-10-17 17:12:00,55.0,53.0,25.83,NW,304,5.0,15.0,92,0.00,,,0.00,,2013-10-18 00:12:00,
2013-10-17 17:22:00,55.0,53.0,25.83,NW,314,6.0,15.0,93,0.00,,,0.00,,2013-10-18 00:22:00,
2013-10-17 17:42:00,54.0,52.0,25.83,NW,313,4.0,12.0,94,0.00,,,0.00,,2013-10-18 00:42:00,
2013-10-17 17:52:00,54.0,53.0,25.83,NW,325,4.0,13.0,95,0.00,,,0.00,,2013-10-18 00:52:00,
2013-10-17 18:12:00,53.0,52.0,25.83,NW,319,3.0,11.0,96,0.00,,,0.00,,2013-10-18 01:12:00,
2013-10-17 18:21:00,53.0,52.0,25.83,NW,325,9.0,9.0,96,0.00,,,0.00,,2013-10-18 01:21:00,